[[{"header":{"parameterUnit":"m.s-1","parameterCategory":1,"la1":30.2991,"la2":30.254,"lo1":-89.0895,"lo2":-89.0444,"dy":0.0017,"dx":0.0017,"nx":28,"ny":28,"refTime":"2024-07-11T03:00:00:Z","depth":0,"parameterNumber":2,"parameterNumberName":"U-component_of_WINDS"},"data":[0,0,0,0,0,0,0,0,0,0,0,0,0,0,0,0,0,0,0,0,0,0,0,0,0,0,0,0,0,0,0,0,0,0,0,0,0,0,0,0,0,0,0,0,0,0,0,0,0,0,0,0,0,0,0,0,0,0,1.8143,1.8143,0,1.8157,1.8157,1.8157,1.8092,1.809,1.8088,1.8086,1.8101,1.8103,1.8106,0,0,0,0,0,0,0,0,0,0,0,0,0,1.8061,1.8063,1.8143,1.8143,1.8144,1.8157,1.8157,1.8157,1.8092,1.809,1.8087,1.8085,1.8101,1.8103,1.8106,0,0,0,0,0,0,0,0,0,0,0,0,0,1.8088,1.8064,1.8143,1.8113,1.811,1.8157,1.8157,1.8157,1.8092,1.809,1.8087,1.8084,1.81,1.8103,1.8106,1.8183,0,0,1.8116,1.8117,0,0,0,0,0,0,0,0,1.8087,1.8091,1.8117,1.8115,1.8112,1.812,1.8134,1.8166,1.8093,1.8099,1.8086,1.8083,1.811,1.8112,1.8121,1.8184,1.8185,1.8116,1.8118,1.812,1.8121,0,0,0,0,0,0,0,1.8085,1.809,1.8149,1.8117,1.8114,1.8098,1.8099,1.8139,1.812,1.8098,1.8094,1.8096,1.8108,1.8118,1.8121,1.8185,1.8116,1.8119,1.8121,1.8122,1.8311,1.8314,0,0,0,0,0,0,1.8087,1.8089,1.8148,1.8149,1.8092,1.8102,1.8103,1.812,1.812,1.8117,1.8099,1.8093,1.8114,1.8117,1.8121,1.8211,1.812,1.8123,1.8125,1.8308,1.8312,1.8315,0,0,0,0,0,0,1.8086,1.8093,1.8148,1.8118,1.8124,1.8107,1.8126,1.8122,1.8132,1.812,1.8116,1.8112,1.8112,1.8116,1.8168,1.821,1.8124,1.8127,1.8304,1.8309,1.8313,1.8391,0,0,0,0,0,0,1.8084,1.8093,1.8122,1.8119,1.8125,1.8195,1.8129,1.8124,1.8137,1.813,1.8132,1.8129,1.811,1.8163,1.8171,1.8213,1.813,1.8301,1.8307,1.8312,1.8385,1.8398,1.8409,0,0,0,0,0,1.8081,1.8144,1.8124,1.8131,1.8162,1.8197,1.8201,1.8177,1.8141,1.817,1.8162,1.8129,1.8204,1.8169,1.8178,1.8221,1.8298,1.8305,1.8312,1.8379,1.8395,1.8409,0,0,0,0,0,0,1.8153,1.8143,1.8121,1.8185,1.8192,1.8186,1.8222,1.8195,1.8213,1.8205,1.8175,1.8176,1.8233,1.8232,1.8193,1.8295,1.8245,1.8254,1.8294,1.8309,1.8321,1.832,1.8132,0,0,0,0,0,1.8177,1.8206,1.8196,1.8253,1.8258,1.824,1.8254,1.8235,1.8242,1.8245,1.824,1.8249,1.8274,1.8291,1.8314,1.8384,1.8383,1.8418,1.8431,1.8441,1.8449,1.8485,1.85,1.8338,1.8337,1.8337,0,0,1.8225,1.8223,1.8244,1.8268,1.8271,1.8302,1.8243,1.8279,1.8301,1.825,1.8298,1.8296,1.8303,1.8364,1.839,1.8365,1.8493,1.8449,1.8457,1.846,1.8493,1.8509,1.8523,1.8342,1.8341,1.8341,0,0,1.833,1.8332,1.8379,1.8384,1.8389,1.8376,1.8388,1.8386,1.8382,1.8429,1.8391,1.8418,1.8463,1.8469,1.8478,1.8584,1.8554,1.8592,1.8656,1.8691,1.8704,1.8715,1.8752,1.8766,1.86,1.86,1.86,0,1.839,1.8435,1.8407,1.8445,1.8457,1.8411,1.8458,1.8464,1.8478,1.8487,1.8458,1.8512,1.8513,1.8575,1.86,1.8609,1.8621,1.8592,1.8704,1.8715,1.8725,1.876,1.8775,1.8605,1.8604,1.8604,1.8603,0,1.8508,1.854,1.8578,1.8591,1.8606,1.8649,1.8628,1.8647,1.8626,1.8616,1.8665,1.8665,1.8687,1.87,1.868,1.8758,1.8742,1.8709,1.8658,1.8746,1.8778,1.8792,1.8611,1.861,1.8608,1.8607,0,0,1.866,1.8656,1.867,1.8675,1.8677,1.8701,1.8742,1.8762,1.8779,1.8789,1.8822,1.8861,1.883,1.884,1.8821,1.8852,1.8935,1.8815,1.8815,1.8837,1.902,1.9045,1.9061,1.8915,1.8917,1.8919,1.902,0,1.8762,1.883,1.8806,1.8876,1.8904,1.8861,1.8896,1.8901,1.8893,1.8916,1.8907,1.8934,1.8892,1.8898,1.8927,1.8919,1.8971,1.8911,1.8945,1.8947,1.8945,1.9078,1.9104,1.9199,1.9032,1.9034,1.9036,0,1.889,1.8904,1.8977,1.8974,1.8985,1.9017,1.9033,1.9056,1.9061,1.9052,1.9063,1.9037,1.9076,1.9025,1.9078,1.9038,1.905,1.9048,1.9051,1.9054,1.8997,1.9083,1.9228,1.9242,1.9056,1.9054,1.9053,0,1.8993,1.903,1.9078,1.9084,1.9081,1.9104,1.9104,1.9106,1.912,1.9134,1.9142,1.9161,1.9172,1.9187,1.9166,1.9131,1.9223,1.917,1.9217,1.9217,1.9238,1.9237,1.9387,1.9247,1.9246,1.9246,1.9246,0,1.9109,1.9155,1.9124,1.9154,1.9204,1.9175,1.9226,1.9221,1.9223,1.9251,1.9214,1.9241,1.9212,1.9237,1.9221,1.9267,1.9272,1.9266,1.9262,1.927,1.927,1.9277,1.927,1.925,1.9249,1.9248,1.9248,0,1.9232,1.9213,1.9263,1.9255,1.9255,1.9292,1.9286,1.9313,1.9301,1.9337,1.9344,1.9326,1.9353,1.9333,1.936,1.9349,1.941,1.9396,1.9408,1.9404,1.9452,1.9448,1.9611,1.9631,1.9479,1.948,1.9482,0,1.9308,1.9342,1.9338,1.9353,1.9355,1.9381,1.9394,1.9367,1.9382,1.939,1.9416,1.9439,1.9456,1.9501,1.949,1.951,1.9496,1.9552,1.9499,1.9506,1.9497,1.9495,1.9498,1.9563,1.9565,1.9567,1.9568,0,1.9444,1.9432,1.9452,1.9469,1.9485,1.9497,1.9506,1.9521,1.9493,1.9512,1.9538,1.9552,1.9578,1.9601,1.9617,1.9617,1.9588,1.9584,1.9596,1.9605,1.961,1.9607,1.9437,1.9581,1.958,1.9579,1.9578,1.9577,1.9545,1.9573,1.9574,1.9597,1.9601,1.961,1.9634,1.9625,1.9647,1.9665,1.9648,1.968,1.9683,1.9701,1.9704,1.9728,1.9705,1.9723,1.9727,1.9732,1.9738,1.9606,1.9731,1.9731,1.9731,1.973,1.973,0,1.9678,1.9676,1.9698,1.9711,1.9729,1.9699,1.9707,1.9725,1.9752,1.9757,1.9774,1.9804,1.9826,1.9817,1.9837,1.9858,1.9845,1.9864,1.9862,1.9862,1.9758,1.9745,1.9874,1.9874,1.9874,1.9874,1.9874,1.9874,1.975,1.9795,1.9784,1.983,1.9828,1.9858,1.9865,1.9873,1.9877,1.9911,1.9929,1.9923,1.9922,1.9941,1.996,1.9956,1.9965,1.9989,1.9981,1.9884,1.987,1.9856,1.9844,1.9991,1.9991,2.0083,2.0084,2.0085]},{"header":{"parameterUnit":"m.s-1","parameterCategory":1,"la1":30.2991,"la2":30.254,"lo1":-89.0895,"lo2":-89.0444,"dy":0.0017,"dx":0.0017,"nx":28,"ny":28,"refTime":"2024-07-11T03:00:00:Z","depth":0,"parameterNumber":3,"parameterNumberName":"V-component_of_WINDS"},"data":[0,0,0,0,0,0,0,0,0,0,0,0,0,0,0,0,0,0,0,0,0,0,0,0,0,0,0,0,0,0,0,0,0,0,0,0,0,0,0,0,0,0,0,0,0,0,0,0,0,0,0,0,0,0,0,0,0,0,-1.3256,-1.3257,0,-1.3311,-1.3312,-1.3313,-1.3322,-1.3322,-1.3321,-1.3321,-1.3378,-1.338,-1.3382,0,0,0,0,0,0,0,0,0,0,0,0,0,-1.316,-1.3162,-1.3256,-1.3257,-1.3258,-1.3311,-1.3312,-1.3313,-1.3322,-1.3322,-1.3321,-1.332,-1.3377,-1.338,-1.3382,0,0,0,0,0,0,0,0,0,0,0,0,0,-1.3207,-1.3163,-1.3256,-1.3269,-1.3271,-1.3311,-1.3312,-1.3313,-1.3322,-1.3322,-1.3321,-1.332,-1.3377,-1.3379,-1.3382,-1.3415,0,0,-1.3391,-1.3393,0,0,0,0,0,0,0,0,-1.3205,-1.3211,-1.3266,-1.3268,-1.327,-1.3309,-1.3299,-1.3347,-1.3322,-1.3303,-1.3321,-1.332,-1.3356,-1.336,-1.3372,-1.3417,-1.342,-1.3392,-1.3393,-1.3395,-1.3396,0,0,0,0,0,0,0,-1.3201,-1.3209,-1.3278,-1.3267,-1.3269,-1.3272,-1.3278,-1.3308,-1.3333,-1.3304,-1.3305,-1.3311,-1.3357,-1.3369,-1.3374,-1.3421,-1.3392,-1.3394,-1.3396,-1.3397,-1.3495,-1.3496,0,0,0,0,0,0,-1.3196,-1.3206,-1.3276,-1.328,-1.3235,-1.3274,-1.3281,-1.3297,-1.3332,-1.3337,-1.3312,-1.3312,-1.3365,-1.337,-1.3376,-1.3415,-1.3395,-1.3397,-1.3399,-1.3494,-1.3495,-1.3496,0,0,0,0,0,0,-1.3194,-1.3202,-1.3274,-1.3243,-1.3252,-1.3277,-1.3295,-1.3299,-1.3311,-1.3338,-1.3342,-1.3321,-1.3364,-1.3372,-1.3405,-1.3418,-1.3399,-1.3401,-1.3493,-1.3495,-1.3496,-1.3495,0,0,0,0,0,0,-1.3191,-1.3201,-1.3213,-1.3243,-1.3254,-1.3302,-1.3296,-1.33,-1.3316,-1.3317,-1.3347,-1.3352,-1.3364,-1.34,-1.3408,-1.3421,-1.3404,-1.3492,-1.3494,-1.3495,-1.3494,-1.3496,-1.3498,0,0,0,0,0,-1.3187,-1.3211,-1.3214,-1.3222,-1.327,-1.3303,-1.3309,-1.3323,-1.3317,-1.333,-1.3347,-1.3351,-1.3415,-1.3404,-1.3412,-1.3427,-1.3491,-1.3493,-1.3495,-1.3493,-1.3496,-1.3498,0,0,0,0,0,0,-1.3183,-1.3216,-1.3219,-1.3253,-1.3275,-1.3304,-1.332,-1.3325,-1.3349,-1.3348,-1.3365,-1.3372,-1.3404,-1.3419,-1.3406,-1.346,-1.3453,-1.3457,-1.3449,-1.3451,-1.3453,-1.3449,-1.3406,0,0,0,0,0,-1.3186,-1.3209,-1.3237,-1.3264,-1.3275,-1.3296,-1.3311,-1.332,-1.3343,-1.3353,-1.3372,-1.3395,-1.3421,-1.3437,-1.3462,-1.3497,-1.3504,-1.3511,-1.3513,-1.3515,-1.3517,-1.3537,-1.354,-1.3502,-1.3502,-1.3502,0,0,-1.3192,-1.3213,-1.3227,-1.3264,-1.3282,-1.3306,-1.3304,-1.333,-1.3348,-1.3357,-1.3389,-1.3404,-1.3431,-1.3465,-1.3481,-1.3478,-1.3529,-1.3517,-1.3518,-1.352,-1.3539,-1.3543,-1.3546,-1.3504,-1.3503,-1.3503,0,0,-1.3215,-1.3234,-1.3258,-1.3277,-1.3304,-1.3318,-1.3324,-1.3352,-1.3362,-1.3395,-1.3402,-1.3425,-1.3468,-1.3487,-1.3502,-1.3533,-1.3537,-1.3541,-1.3551,-1.357,-1.3573,-1.3576,-1.3586,-1.359,-1.3544,-1.3544,-1.3544,0,-1.322,-1.3256,-1.3271,-1.3296,-1.3312,-1.3321,-1.3347,-1.3364,-1.3398,-1.3409,-1.3406,-1.346,-1.3479,-1.3518,-1.3525,-1.3538,-1.3545,-1.3537,-1.3571,-1.3574,-1.3577,-1.3587,-1.3591,-1.3544,-1.3544,-1.3544,-1.3544,0,-1.326,-1.3285,-1.3302,-1.3334,-1.3352,-1.3378,-1.3396,-1.3413,-1.3421,-1.3435,-1.3468,-1.3491,-1.3521,-1.3531,-1.3539,-1.3571,-1.3568,-1.3568,-1.3561,-1.358,-1.359,-1.3594,-1.3545,-1.3544,-1.3544,-1.3544,0,0,-1.3281,-1.3321,-1.3327,-1.3342,-1.3373,-1.3393,-1.3419,-1.3447,-1.3461,-1.3485,-1.3507,-1.3544,-1.3544,-1.3561,-1.3571,-1.3588,-1.361,-1.3586,-1.3586,-1.3589,-1.3647,-1.3646,-1.365,-1.3614,-1.3615,-1.3615,-1.3644,0,-1.3308,-1.3353,-1.3368,-1.3406,-1.3429,-1.3439,-1.3461,-1.3483,-1.3497,-1.352,-1.3536,-1.3561,-1.3559,-1.357,-1.3587,-1.3604,-1.3622,-1.3602,-1.3634,-1.3635,-1.3626,-1.3656,-1.3655,-1.3681,-1.3648,-1.3649,-1.365,0,-1.3345,-1.3368,-1.3409,-1.3437,-1.3447,-1.3467,-1.3494,-1.3516,-1.3541,-1.355,-1.3569,-1.3578,-1.3606,-1.3598,-1.3637,-1.3623,-1.3637,-1.3648,-1.3649,-1.3652,-1.3643,-1.3659,-1.369,-1.3694,-1.3656,-1.3655,-1.3655,0,-1.3355,-1.3397,-1.3427,-1.344,-1.3473,-1.3487,-1.3501,-1.3526,-1.3542,-1.3566,-1.3577,-1.3605,-1.3619,-1.3641,-1.3657,-1.365,-1.3694,-1.3688,-1.3702,-1.3702,-1.371,-1.371,-1.3744,-1.3721,-1.3721,-1.3721,-1.3721,0,-1.3383,-1.3407,-1.3432,-1.345,-1.3478,-1.3494,-1.3521,-1.3537,-1.3558,-1.358,-1.359,-1.361,-1.3631,-1.3654,-1.3667,-1.3697,-1.3704,-1.3712,-1.3715,-1.371,-1.3709,-1.3719,-1.3718,-1.3722,-1.3722,-1.3721,-1.3721,0,-1.3399,-1.3417,-1.3449,-1.3479,-1.3486,-1.3505,-1.3531,-1.3549,-1.3564,-1.3591,-1.3598,-1.3621,-1.3649,-1.3668,-1.3703,-1.3712,-1.3744,-1.3747,-1.3735,-1.3737,-1.375,-1.3748,-1.3791,-1.3798,-1.3771,-1.3771,-1.3771,0,-1.3415,-1.3434,-1.3465,-1.348,-1.3494,-1.3518,-1.3535,-1.3552,-1.3569,-1.3599,-1.3614,-1.3642,-1.3665,-1.3709,-1.373,-1.3757,-1.3761,-1.3774,-1.3765,-1.376,-1.376,-1.3758,-1.376,-1.3775,-1.3775,-1.3775,-1.3775,0,-1.3442,-1.3449,-1.3473,-1.3499,-1.3519,-1.354,-1.3562,-1.3574,-1.3595,-1.3614,-1.3642,-1.366,-1.3696,-1.3724,-1.3754,-1.3769,-1.3776,-1.3778,-1.3783,-1.3778,-1.377,-1.3774,-1.3739,-1.3777,-1.3777,-1.3777,-1.3777,-1.3777,-1.3458,-1.3475,-1.3499,-1.3525,-1.3543,-1.3563,-1.3582,-1.3599,-1.3622,-1.3653,-1.3662,-1.3691,-1.3716,-1.3756,-1.3772,-1.3796,-1.3794,-1.3801,-1.3803,-1.3804,-1.3804,-1.3767,-1.3801,-1.3801,-1.3801,-1.3801,-1.3801,0,-1.3484,-1.35,-1.3524,-1.3554,-1.3574,-1.3579,-1.3603,-1.362,-1.3645,-1.3668,-1.3691,-1.3723,-1.375,-1.3773,-1.3801,-1.3816,-1.382,-1.3823,-1.3821,-1.3825,-1.3804,-1.3796,-1.3819,-1.3819,-1.3819,-1.3819,-1.3819,-1.3819,-1.35,-1.3529,-1.354,-1.3578,-1.3594,-1.3623,-1.3636,-1.3655,-1.3673,-1.3709,-1.3731,-1.3746,-1.3769,-1.3799,-1.3824,-1.383,-1.384,-1.3842,-1.3849,-1.3828,-1.3826,-1.3824,-1.3818,-1.3844,-1.3844,-1.3868,-1.3868,-1.3868]}]]